TimeEST,TemperatureF,Dew PointF,Humidity,Sea Level PressureIn,VisibilityMPH,Wind Direction,Wind SpeedMPH,Gust SpeedMPH,PrecipitationIn,Events,Conditions,WindDirDegrees,DateUTC
12:28 AM,-9999,-9999,N/A,30.05,10.0,NNE,6.9,-,N/A,,Mostly Cloudy,30,2012-11-20 05:28:00
12:53 AM,-9999,-9999,N/A,30.05,10.0,NNE,9.2,-,N/A,,Mostly Cloudy,20,2012-11-20 05:53:00
1:46 AM,-9999,-9999,N/A,30.04,10.0,NNE,5.8,-,N/A,,Scattered Clouds,20,2012-11-20 06:46:00
1:53 AM,-9999,-9999,N/A,30.04,10.0,North,5.8,-,N/A,,Scattered Clouds,10,2012-11-20 06:53:00
2:12 AM,-9999,-9999,N/A,30.04,10.0,North,9.2,-,N/A,,Mostly Cloudy,350,2012-11-20 07:12:00
2:53 AM,-9999,-9999,N/A,30.02,10.0,North,11.5,-,N/A,,Overcast,360,2012-11-20 07:53:00
3:53 AM,-9999,-9999,N/A,30.02,10.0,North,10.4,-,N/A,,Overcast,350,2012-11-20 08:53:00
4:53 AM,-9999,-9999,N/A,30.01,10.0,North,10.4,-,N/A,,Overcast,350,2012-11-20 09:53:00
5:53 AM,-9999,-9999,N/A,30.01,10.0,North,9.2,24.2,N/A,,Overcast,350,2012-11-20 10:53:00
6:08 AM,69.8,57.2,64,30.02,10.0,NNW,13.8,20.7,N/A,,Mostly Cloudy,330,2012-11-20 11:08:00
6:53 AM,68.0,57.9,70,30.03,10.0,NNW,11.5,-,N/A,,Overcast,330,2012-11-20 11:53:00
7:53 AM,67.8,57.9,71,30.05,10.0,NNW,15.0,-,N/A,,Overcast,330,2012-11-20 12:53:00
8:53 AM,68.0,57.9,70,30.06,10.0,North,13.8,-,N/A,,Overcast,360,2012-11-20 13:53:00
9:53 AM,68.0,57.9,70,30.08,10.0,North,15.0,-,N/A,,Overcast,350,2012-11-20 14:53:00
10:53 AM,66.9,59.0,76,30.07,10.0,North,13.8,-,N/A,,Overcast,350,2012-11-20 15:53:00
11:53 AM,68.5,57.9,69,30.05,10.0,North,10.4,-,N/A,,Overcast,350,2012-11-20 16:53:00
12:53 PM,70.0,57.9,65,30.02,10.0,NW,11.5,-,N/A,,Overcast,320,2012-11-20 17:53:00
1:53 PM,69.8,59.0,68,29.99,10.0,NNW,12.7,-,N/A,,Overcast,340,2012-11-20 18:53:00
2:00 PM,69.8,59.0,68,29.99,10.0,North,12.7,-,N/A,,Overcast,350,2012-11-20 19:00:00
2:53 PM,69.8,60.1,71,29.98,10.0,NNW,10.4,-,N/A,,Overcast,340,2012-11-20 19:53:00
3:53 PM,69.8,59.0,68,29.97,10.0,NNW,12.7,-,N/A,,Mostly Cloudy,340,2012-11-20 20:53:00
4:53 PM,69.8,59.0,68,29.97,10.0,NNW,11.5,-,N/A,,Overcast,340,2012-11-20 21:53:00
5:53 PM,69.8,61.0,73,29.98,10.0,North,10.4,-,N/A,,Overcast,350,2012-11-20 22:53:00
6:53 PM,69.8,61.0,73,29.99,10.0,North,12.7,-,N/A,,Overcast,350,2012-11-20 23:53:00
7:53 PM,69.8,61.0,73,30.01,10.0,North,9.2,-,N/A,,Overcast,360,2012-11-21 00:53:00
8:53 PM,66.2,60.1,81,30.02,10.0,North,6.9,-,N/A,,Overcast,360,2012-11-21 01:53:00
9:53 PM,66.2,61.0,83,30.03,10.0,NNW,10.4,-,N/A,,Overcast,340,2012-11-21 02:53:00
10:53 PM,-9999,-9999,N/A,30.02,10.0,NNW,10.4,-,N/A,,Mostly Cloudy,340,2012-11-21 03:53:00
11:53 PM,-9999,-9999,N/A,30.01,10.0,NNW,12.7,-,N/A,,Partly Cloudy,340,2012-11-21 04:53:00